Regional Weather Roundup
Issued by NWS

Home | Current Version | Previous Version | Text Only | Print | Product List | Glossary On
Versions: 1 2 3 4 5 6 7 8 9 10 11 12 13 14 15 16 17 18 19 20 21 22 23 24 25 26 27 28 29 30 31 32 33 34 35 36 37 38 39 40 41 42 43 44 45 46 47 48 49 50
000
ASUS43 KTOP 010008
RWRKS

WEATHER ROUNDUP FOR KANSAS
NATIONAL WEATHER SERVICE GOODLAND KS
600 PM CST SAT JAN 31 2015

NOTE:  "FAIR" INDICATES FEW OR NO CLOUDS BELOW 12,000 FEET WITH NO
SIGNIFICANT WEATHER AND/OR OBSTRUCTIONS TO VISIBILITY.

KSZ001>006-013>018-027>032-041>047-010100-
NORTHWEST KANSAS

CITY           SKY/WX    TMP DP  RH WIND       PRES   REMARKS
GOODLAND       LGT SNOW  33  32  96 N7        29.78F FOG
6HR MIN TEMP:  32; 6HR MAX TEMP:  39; 6HR PCP:  0.04;

HAYS           CLOUDY    39  30  70 S8        29.81S
HILL CITY      LGT RAIN  39  38  96 E5        29.79F FOG
6HR MIN TEMP:  36; 6HR MAX TEMP:  40; 6HR PCP:  0.02;

RUSSELL        LGT RAIN  39  38  96 S9        29.81F
6HR MIN TEMP:  35; 6HR MAX TEMP:  39; 6HR PCP:  0.27;

$$

KSZ061>065-074>080-084>089-010100-
SOUTHWEST KANSAS

CITY           SKY/WX    TMP DP  RH WIND       PRES   REMARKS
DODGE CITY     CLOUDY    40  37  89 S10       29.79F WCI  33
6HR MIN TEMP:  37; 6HR MAX TEMP:  40; 6HR PCP:  0.02;

ELKHART          N/A     44  35  70 SW7         N/A
GARDEN CITY    CLOUDY    40  38  93 SW5       29.76F
6HR MIN TEMP:  38; 6HR MAX TEMP:  40;

LIBERAL        CLOUDY    43  36  75 SW10      29.81S
PRATT          DRIZZLE   37  37 100 S14       29.85S WCI  29
$$

KSZ066>073-081>083-090>101-010100-
SOUTHEAST KANSAS

CITY           SKY/WX    TMP DP  RH WIND       PRES   REMARKS
CHANUTE        LGT RAIN  38  36  92 SE5       29.98F FOG
6HR MIN TEMP:  38; 6HR MAX TEMP:  41; 6HR PCP:  0.14;

COFFEYVILLE    LGT RAIN  40  37  89 S3        29.99F
6HR MIN TEMP:  40; 6HR MAX TEMP:  43; 6HR PCP: TRACE;

HUTCHINSON     LGT RAIN  40  37  89 S15       29.87F WCI  32
6HR MIN TEMP:  39; 6HR MAX TEMP:  41; 6HR PCP:  0.29;

MEDICINE LODGE   N/A     41  40  96 S10       29.85F
NEWTON         CLOUDY    37  34  87 S15       29.90F WCI  28
PARSONS        LGT RAIN  40  37  89 CALM      29.99F
6HR MIN TEMP:  40; 6HR MAX TEMP:  44; 6HR PCP: TRACE;

WICHITA INTL   LGT RAIN  39  37  92 S15       29.89F FOG     WCI  31
6HR MIN TEMP:  39; 6HR MAX TEMP:  40; 6HR PCP:  0.21;

WICHITA JABRA  LGT RAIN  38  38 100 S15       29.90F WCI  29
6HR MIN TEMP:  38; 6HR MAX TEMP:  40; 6HR PCP:  0.21;

WICHITA MCCONL LGT RAIN  39  37  93 SE16      29.90F WCI  30
WINFIELD       LGT RAIN  39  31  72 SE13      29.92F WCI  31
6HR MIN TEMP:  39; 6HR MAX TEMP:  40; 6HR PCP:  0.21;

$$

KSZ007>012-019>026-033>040-048>060-102>105-010100-
NORTHEAST KANSAS

CITY           SKY/WX    TMP DP  RH WIND       PRES   REMARKS
CONCORDIA      LGT RAIN  34  34 100 E3        29.87F FOG
6HR MIN TEMP:  33; 6HR MAX TEMP:  34; 6HR PCP:  0.30;

EMPORIA        LGT RAIN  37  36  96 SE15      29.93F FOG     WCI  28
6HR MIN TEMP:  36; 6HR MAX TEMP:  38; 6HR PCP:  0.26;

LAWRENCE       LGT RAIN  36  35  96 SE10      29.99F FOG     WCI  28
6HR MIN TEMP:  35; 6HR MAX TEMP:  40; 6HR PCP:  0.38;

MANHATTAN      LGT RAIN  38  37  97 SE6       29.91F
6HR MIN TEMP:  35; 6HR MAX TEMP:  39; 6HR PCP:  0.24;

MARYSVILLE     LGT SNOW  32  32 100 SE12      29.90F WCI  23
OLATHE IND     LGT RAIN  36  35  96 SE12      30.00F FOG     WCI  28
6HR MIN TEMP:  36; 6HR MAX TEMP:  40; 6HR PCP:  0.26;

OLATHE EXE     LGT RAIN  36  35  96 SE7       29.99F FOG
6HR MIN TEMP:  36; 6HR MAX TEMP:  39; 6HR PCP:  0.19;

SALINA         LGT RAIN  41  37  86 S12       29.88F
6HR MIN TEMP:  37; 6HR MAX TEMP:  41; 6HR PCP:  0.30;

TOPEKA BILLARD LGT RAIN  37  35  92 SE14      29.96F FOG     WCI  28
6HR MIN TEMP:  34; 6HR MAX TEMP:  38; 6HR PCP:  0.39;

TOPEKA FORBES  LGT RAIN  38  35  89 SE14      29.94F FOG     WCI  30
6HR MIN TEMP:  35; 6HR MAX TEMP:  38; 6HR PCP:  0.34;

$$



USA.gov is the U.S. government's official web portal to all federal, state and local government web resources and services.